Regional Weather Roundup
Issued by NWS Upton, NY

Current Version | Previous Version | Text Only | Print | Product List | Glossary On
Versions: 1 2 3 4 5 6 7 8 9 10 11 12 13 14 15 16 17 18 19 20 21 22 23 24 25 26 27 28 29 30 31 32 33 34 35 36 37 38 39 40 41 42 43 44 45 46 47 48 49 50
000 ASUS41 KOKX 281507 RWROKX REGIONAL WEATHER ROUNDUP NATIONAL WEATHER SERVICE NEW YORK NY 1100 AM EDT SAT MAR 28 2015 NOTE: "FAIR" INDICATES FEW OR NO CLOUDS BELOW 12,000 FEET WITH NO SIGNIFICANT WEATHER AND/OR OBSTRUCTIONS TO VISIBILITY. NYZ071-072-176-178-NJZ106-104-281600- NEW YORK CITY METRO AREA CITY SKY/WX TMP DP RH WIND PRES REMARKS CENTRAL PARK CLOUDY 34 18 52 VRB7 29.85R WCI 28 LAGUARDIA APRT FLURRIES 34 21 59 N12 29.83R WCI 25 KENNEDY INTL PTSUNNY 36 19 50 NW20G28 29.83R WCI 25 NEWARK/LIBERTY PTSUNNY 37 18 46 N17G25 29.84R WCI 27 BRNX BOT. GARD N/A N/A N/A N/A N12 29.84R TETERBORO FLURRIES 35 19 52 N14 29.84R WCI 26 $$ NYZ177-179-078>081-281600- LONG ISLAND NEW YORK CITY SKY/WX TMP DP RH WIND PRES REMARKS FARMINGDALE LGT SNOW 33 28 81 N15G25 29.81R WCI 23 ISLIP SNOW 32 29 88 N14G23 29.77R VSB 1/2 WCI 22 SHIRLEY LGT SNOW 33 30 88 NW12 29.78S FOG WCI 24 WESTHAMPTON LGT SNOW 34 31 88 N14G23 29.77S FOG WCI 25 MONTAUK POINT N/A 35 33 92 NW9 29.74S WCI 28 $$ NYZ052-065-067-281600- HUDSON VALLEY CITY SKY/WX TMP DP RH WIND PRES REMARKS WHITE PLAINS CLOUDY 31 22 69 NW21G29 29.79R WCI 18 NEWBURGH LGT SNOW 32 25 74 NE14 29.85S WCI 22 MONTGOMERY CLOUDY 33 18 53 NW12 29.84R WCI 24 POUGHKEEPSIE CLOUDY 31 20 63 N16G28 29.87R WCI 20 ALBANY LGT SNOW 26 20 77 N10 29.93R VSB 3/4 WCI 16 $$ NJZ001-105-106-008-010-013-015-019>022-104-281600- NEW JERSEY CITY SKY/WX TMP DP RH WIND PRES REMARKS NEWARK/LIBERTY PTSUNNY 37 18 46 N17G25 29.84R WCI 27 TETERBORO FLURRIES 35 19 52 N14 29.84R WCI 26 CALDWELL CLOUDY 35 17 47 VRB7 29.85R WCI 29 MORRISTOWN MOSUNNY 37 19 48 N12G20 29.85R WCI 30 SOMERVILLE SUNNY 37 15 40 N12G23 29.84S WCI 29 SUSSEX CLOUDY 32 17 54 NW17G29 29.86R WCI 21 ANDOVER N/A 32 17 54 N10G18 29.86R WCI 24 TRENTON SUNNY 37 17 44 N17G24 29.85R WCI 27 MILLVILLE CLOUDY 40 21 46 NW14G22 29.88R WCI 32 ATLANTIC CITY SUNNY 41 21 44 NW20 29.85R WRIGHTSTOWN SUNNY 39 22 49 W13G21 29.83R WCI 32 TOMS RIVER SUNNY 39 19 45 NW17G26 29.84S WCI 30 BELMAR CLOUDY 37 18 44 NW16 29.82S WCI 28 $$ PAZ047>061-062-071-281600- EASTERN PENNSYLVANIA CITY SKY/WX TMP DP RH WIND PRES REMARKS PHILADELPHIA PTSUNNY 38 18 44 NW15G24 29.90R WCI 29 ALLENTOWN MOSUNNY 34 17 50 NW16G24 29.90S WCI 24 SCRANTON CLOUDY 27 11 51 N10 29.92R WCI 17 $$ CTZ002-004>006-009-010-012-RIZ004-006-007-MAZ004-011-015-281600- SOUTHERN NEW ENGLAND IN CT CITY SKY/WX TMP DP RH WIND PRES REMARKS BRADLEY INTL LGT SNOW 34 30 85 N10 29.79S FOG WCI 26 HARTFORD SNOW 33 30 88 N10 29.80S VSB 1/2 WCI 25 DANBURY LGT SNOW 31 22 69 N10G16 29.82S WCI 22 WTRBRY/OXFORD CLOUDY 30 21 69 N14 29.79S VSB 1 WCI 20 BRIDGEPORT LGT SNOW 33 29 85 N15G23 29.79S FOG WCI 23 MERIDEN LGT SNOW 33 29 85 NW12 29.79F FOG WCI 24 NEW HAVEN LGT SNOW 34 31 88 N12G18 29.78S FOG WCI 25 CHESTER LGT SNOW 34 32 93 N13G18 29.75F VSB 1 WCI 25 GROTON LGT RAIN 36 34 92 N13 29.74F WCI 27 WILLIMANTIC LGT SNOW 34 31 88 NW9 29.77S FOG WCI 27 IN RI CITY SKY/WX TMP DP RH WIND PRES REMARKS PROVIDENCE LGT SNOW 35 32 88 N15 29.75R FOG WCI 25 BLOCK ISLAND CLOUDY 34 32 93 N9 29.71F WCI 26 WESTERLY LGT SNOW 35 33 92 N8 29.74S FOG WCI 29 IN MA CITY SKY/WX TMP DP RH WIND PRES REMARKS BOSTON LGT SNOW 33 31 92 N20 29.77R VSB 3/4 WCI 21 WORCESTER SNOW 31 28 89 N12G21 29.74S VSB 1/2 WCI 22 WESTFIELD LGT SNOW 33 29 85 N12 29.80S FOG WCI 24 PROVINCETOWN CLOUDY 37 34 87 NE15 29.72R WCI 28 NANTUCKET LGT RAIN 39 36 89 N21 29.66R FOG WCI 29 $$ ANZ330-335-338-340-345-350-353-355-281600- COASTAL MARINE OBSERVATIONS STATION/POSITION TIME SKY/WX TEMP WIND PRES VSBY WAVE AIR SEA DIR/SP/G HT/PER (UTC) (F) (DEG/KT/KT) (MB) (MI) (FT/S) NY HARB ENTRANCE 1450 35 38 320/ 17/ 21 1009.3 4/11 4S FIRE IS 1403 36 N/A 4/11 20S FIRE ISLAND 1350 38 1008.5 6/11 23SW MTP 1450 N/A 6/11 HUDSON CANYON NOT AVBL EXECUTION ROCKS NOT AVBL WESTERN LI SOUND NOT AVBL CENTRAL LI SOUND NOT AVBL EASTERN LI SOUND NOT AVBL ROBBINS REEF 1400 33 340/ 17/ 20 1008.8 $$ >>>>>>>>>>>>>>>>>>>>>>>>>>>> KEY <<<<<<<<<<<<<<<<<<<<<<<<<<< > < > SKY/WX - SKY CONDITION/PRESENT WEATHER < > TMP - TEMPERATURE IN FAHRENHEIT < > DP - DEWPOINT IN FAHRENHEIT < > RH - RELATIVE HUMIDITY IN PERCENT < > WIND - DIRECTION AND SPEED IN MPH < > PRES - MEAN SEA LEVEL PRESSURE IN INCHES OF HG < > WCI - WIND CHILL INDEX < > VSB - VISIBILITY IN MILES < > HX - HEAT INDEX < > TC - TEMPERATURE IN CELSIUS < > VRB - VARIABLE WIND DIRECTION < > < >>>>>>>>>>>>>>>>>>>>>>>>>>>> KEY <<<<<<<<<<<<<<<<<<<<<<<<<<<

USA.gov is the U.S. government's official web portal to all federal, state and local government web resources and services.